Lid_Strength_Index
3 2 2 1 1 1 1 1 1 0 0 1 1 1 2 3 4 6 6 8 7 9 10 9 8 8 8 9 9 10 10 10 10 10 9 8 8 8 7 7 8 8 9
4 3 2 2 1 2 1 1 1 1 1 1 1 1 2 5 7 8 7 9 10 11 10 9 8 9 9 10 10 10 10 10 10 11 11 11 9 9 9 8 8 9 9
6 4 3 2 2 2 1 1 1 1 1 0 0 2 7 10 11 11 10 10 11 11 9 9 9 9 9 10 10 10 10 11 11 11 12 11 11 12 9 9 10 10 10
5 5 4 3 2 2 1 1 1 1 1 0 1 3 5 9 8 9 11 11 11 11 12 10 8 9 9 9 10 10 10 10 11 10 11 11 12 13 13 10 10 10 11
6 6 5 4 3 1 1 1 1 1 1 1 1 2 5 6 8 10 11 12 12 10 9 9 8 9 9 10 10 10 11 11 11 11 11 11 11 11 13 14 12 11 11
5 5 4 4 3 1 1 1 1 1 1 1 2 3 5 9 11 12 13 14 12 10 10 9 9 9 10 10 10 11 11 11 11 11 11 12 13 13 13 14 14 14 12
6 6 5 4 3 2 2 2 2 2 2 1 3 4 8 8 10 11 13 13 12 11 10 9 10 10 10 10 10 10 10 11 11 11 12 11 12 12 13 14 14 14 13
4 6 5 4 3 2 2 2 2 3 2 2 4 7 9 9 11 13 14 12 11 10 10 10 10 10 10 10 10 10 10 11 11 12 11 12 12 12 13 14 14 15 14
4 5 5 4 3 3 2 2 2 3 3 3 6 10 12 12 13 13 12 11 11 11 10 10 10 10 10 11 11 11 11 11 11 11 12 13 12 12 12 12 12 14 16
5 5 5 4 3 2 2 2 2 4 3 4 6 10 13 13 13 13 13 12 11 11 11 11 11 11 11 11 11 11 11 12 11 12 13 13 12 12 12 12 12 13 14
5 5 5 4 3 2 2 3 3 4 5 6 9 11 13 14 12 12 12 11 11 11 12 11 11 11 12 12 12 12 12 13 13 13 13 13 12 13 13 12 12 13 13
5 5 4 3 3 3 3 4 5 6 7 9 10 13 14 14 13 13 11 11 12 12 11 11 12 12 12 12 12 13 13 13 13 13 13 13 13 13 13 13 13 13 12
5 5 5 5 4 4 4 5 7 9 10 11 13 14 14 12 12 12 12 12 12 11 12 12 12 13 13 13 13 13 13 13 13 13 13 13 13 13 13 12 12 12 12
5 6 6 5 5 5 6 7 10 12 12 14 14 14 13 12 12 13 13 13 12 12 12 12 13 13 13 14 14 13 13 12 12 12 13 13 13 13 12 12 12 12 12
6 8 7 7 6 8 9 11 13 14 14 14 14 13 12 12 13 13 13 13 12 12 13 13 14 13 14 14 13 12 12 12 13 12 12 12 12 12 11 12 12 12 12
6 7 7 8 8 10 12 14 15 15 14 14 14 14 13 13 14 14 13 13 13 13 13 14 14 14 15 15 13 12 12 12 13 13 12 12 12 12 11 11 11 11 12
6 7 8 8 10 12 14 15 15 14 14 14 14 14 14 14 14 13 13 13 13 13 14 15 15 15 15 14 13 12 12 12 12 13 12 12 12 12 12 11 11 10 9
6 8 8 11 12 13 14 14 14 14 14 14 14 15 14 14 14 14 14 14 13 14 14 15 15 15 14 14 13 12 12 12 12 12 12 12 12 12 12 12 11 10 10
7 9 10 13 13 13 14 14 14 14 14 14 14 14 14 14 14 14 14 14 14 15 15 15 15 14 14 14 13 12 12 12 12 12 12 12 12 11 11 11 11 11 10
9 10 11 11 12 13 12 13 13 14 14 14 14 14 14 14 14 14 14 15 15 15 15 14 14 15 14 14 13 13 12 13 13 12 12 11 11 11 10 11 11 11 10
12 12 12 12 13 13 13 14 14 14 14 14 14 14 14 14 15 15 15 15 15 14 14 15 14 14 14 14 13 12 12 13 13 13 13 12 11 10 9 9 10 11 10
13 13 14 14 14 13 13 14 15 15 15 15 15 15 15 15 15 15 15 14 14 15 15 15 14 14 14 14 13 12 12 12 13 13 12 12 11 10 10 10 10 10 9
13 12 13 14 13 13 14 16 16 15 16 16 16 16 15 15 14 14 14 14 15 15 15 15 15 14 14 13 13 12 12 12 12 12 11 10 10 10 11 11 10 11 11
14 14 14 14 15 14 15 16 16 15 16 16 15 14 14 15 14 14 14 15 15 15 15 15 15 15 14 14 13 13 12 12 12 11 11 10 11 11 12 12 12 11 11
14 14 15 15 15 15 16 16 16 15 15 14 14 14 15 15 15 15 15 14 14 14 15 14 15 15 15 14 13 13 13 12 12 11 12 12 13 13 13 13 12 11 11
15 15 15 16 16 16 16 15 14 14 14 15 15 15 15 15 15 15 15 15 15 14 14 14 14 14 13 13 13 12 12 12 11 13 13 14 14 14 14 13 13 12 12